| time (UTC) | temp F | wind direction | speed MPH | gust MPH | rain 1hr in | rain 24hr in | rain mn in | humidity % | barometer mb |
| 20260506051013 | 63 | 246 | 0.0 | 2.0 | 0.00 | 0.00 | 0.00 | 32 | 1008.7 |
| 20260506050516 | 63 | 246 | 0.0 | 3.0 | 0.00 | 0.00 | 0.00 | 32 | 1008.6 |
| 20260506045010 | 63 | 246 | 0.0 | 2.0 | 0.00 | 0.00 | 0.00 | 32 | 1008.3 |
| 20260506044510 | 63 | 246 | 0.0 | 3.0 | 0.00 | 0.00 | 0.00 | 32 | 1008.3 |
| 20260506044011 | 64 | 246 | 0.0 | 4.0 | 0.00 | 0.00 | 0.00 | 32 | 1008.2 |
| 20260506043508 | 64 | 246 | 1.0 | 5.0 | 0.00 | 0.00 | 0.00 | 32 | 1008.2 |
| 20260506043008 | 64 | 245 | 0.0 | 5.0 | 0.00 | 0.00 | 0.00 | 32 | 1008.2 |
| 20260506042510 | 64 | 242 | 1.0 | 4.0 | 0.00 | 0.00 | 0.00 | 32 | 1008.0 |
| 20260506042007 | 64 | 241 | 1.0 | 4.0 | 0.00 | 0.00 | 0.00 | 32 | 1008.0 |
| 20260506041506 | 64 | 241 | 0.0 | 4.0 | 0.00 | 0.00 | 0.00 | 32 | 1008.0 |
| 20260506041009 | 64 | 241 | 0.0 | 5.0 | 0.00 | 0.00 | 0.00 | 32 | 1007.9 |
| 20260506040505 | 64 | 240 | 0.0 | 4.0 | 0.00 | 0.00 | 0.00 | 32 | 1007.9 |
| 20260506040010 | 64 | 240 | 1.0 | 4.0 | 0.00 | 0.00 | 0.00 | 32 | 1007.8 |
| 20260506035504 | 64 | 240 | 1.0 | 4.0 | 0.00 | 0.00 | 0.00 | 32 | 1007.7 |
| 20260506035004 | 64 | 239 | 1.0 | 8.0 | 0.00 | 0.00 | 0.00 | 32 | 1007.6 |
| 20260506034504 | 64 | 238 | 1.0 | 8.0 | 0.00 | 0.00 | 0.00 | 32 | 1007.6 |
| 20260506034004 | 65 | 242 | 2.0 | 5.0 | 0.00 | 0.00 | 0.00 | 32 | 1007.5 |
| 20260506033503 | 65 | 240 | 3.0 | 7.0 | 0.00 | 0.00 | 0.00 | 32 | 1007.4 |
| 20260506033004 | 65 | 248 | 1.0 | 5.0 | 0.00 | 0.00 | 0.00 | 32 | 1007.3 |
| 20260506032503 | 65 | 245 | 2.0 | 8.0 | 0.00 | 0.00 | 0.00 | 32 | 1007.3 |
| 20260506032003 | 65 | 245 | 3.0 | 8.0 | 0.00 | 0.00 | 0.00 | 32 | 1007.2 |
| 20260506031508 | 65 | 249 | 2.0 | 8.0 | 0.00 | 0.00 | 0.00 | 32 | 1007.1 |
| 20260506031003 | 65 | 259 | 2.0 | 8.0 | 0.00 | 0.00 | 0.00 | 31 | 1007.0 |
| 20260506030502 | 65 | 256 | 2.0 | 7.0 | 0.00 | 0.00 | 0.00 | 31 | 1006.9 |
| 20260506030003 | 66 | 256 | 3.0 | 7.0 | 0.00 | 0.00 | 0.00 | 31 | 1006.8 |
| 20260506025504 | 66 | 258 | 1.0 | 6.0 | 0.00 | 0.00 | 0.00 | 31 | 1006.7 |
| 20260506025002 | 66 | 258 | 1.0 | 6.0 | 0.00 | 0.00 | 0.00 | 31 | 1006.7 |
| 20260506024505 | 66 | 259 | 2.0 | 7.0 | 0.00 | 0.00 | 0.00 | 31 | 1006.7 |
| 20260506024001 | 66 | 260 | 3.0 | 9.0 | 0.00 | 0.00 | 0.00 | 31 | 1006.6 |
| 20260506023502 | 66 | 263 | 3.0 | 9.0 | 0.00 | 0.00 | 0.00 | 31 | 1006.6 |
| 20260506023002 | 66 | 263 | 3.0 | 9.0 | 0.00 | 0.00 | 0.00 | 31 | 1006.5 |
| 20260506022501 | 66 | 251 | 3.0 | 7.0 | 0.00 | 0.00 | 0.00 | 30 | 1006.5 |
| 20260506022001 | 67 | 260 | 1.0 | 8.0 | 0.00 | 0.00 | 0.00 | 30 | 1006.4 |
| 20260506021601 | 67 | 256 | 2.0 | 8.0 | 0.00 | 0.00 | 0.00 | 30 | 1006.4 |
| 20260506021501 | 67 | 257 | 2.0 | 8.0 | 0.00 | 0.00 | 0.00 | 30 | 1006.5 |
| 20260506021100 | 67 | 251 | 2.0 | 7.0 | 0.00 | 0.00 | 0.00 | 30 | 1006.4 |
| 20260506020600 | 67 | 255 | 1.0 | 7.0 | 0.00 | 0.00 | 0.00 | 29 | 1006.3 |
| 20260506020001 | 67 | 245 | 2.0 | 7.0 | 0.00 | 0.00 | 0.00 | 29 | 1006.2 |
| 20260506015600 | 67 | 231 | 1.0 | 6.0 | 0.00 | 0.00 | 0.00 | 29 | 1006.2 |
| 20260506015203 | 67 | 225 | 2.0 | 7.0 | 0.00 | 0.00 | 0.00 | 29 | 1006.2 |
| 20260506014600 | 67 | 219 | 3.0 | 7.0 | 0.00 | 0.00 | 0.00 | 29 | 1006.2 |
| 20260506014101 | 68 | 190 | 2.0 | 6.0 | 0.00 | 0.00 | 0.00 | 29 | 1006.1 |
| 20260506013559 | 69 | 228 | 1.0 | 5.0 | 0.00 | 0.00 | 0.00 | 28 | 1006.1 |
| 20260506013059 | 69 | 245 | 1.0 | 5.0 | 0.00 | 0.00 | 0.00 | 27 | 1006.1 |
| 20260506012559 | 70 | 248 | 2.0 | 5.0 | 0.00 | 0.00 | 0.00 | 27 | 1006.2 |
| 20260506012058 | 69 | 218 | 1.0 | 4.0 | 0.00 | 0.00 | 0.00 | 26 | 1006.2 |
| 20260506011607 | 69 | 212 | 0.0 | 6.0 | 0.00 | 0.00 | 0.00 | 26 | 1006.1 |
| 20260506011058 | 70 | 203 | 2.0 | 6.0 | 0.00 | 0.00 | 0.00 | 25 | 1006.0 |
| 20260506010601 | 69 | 215 | 0.0 | 5.0 | 0.00 | 0.00 | 0.00 | 25 | 1006.1 |
| 20260506010100 | 69 | 215 | 1.0 | 5.0 | 0.00 | 0.00 | 0.00 | 25 | 1006.1 |
| 20260506005556 | 68 | 206 | 2.0 | 5.0 | 0.00 | 0.00 | 0.00 | 26 | 1006.0 |
| 20260506005056 | 68 | 156 | 2.0 | 8.0 | 0.00 | 0.00 | 0.00 | 25 | 1006.0 |
| 20260506004559 | 69 | 149 | 2.0 | 8.0 | 0.00 | 0.00 | 0.00 | 24 | 1006.0 |
| 20260506004056 | 69 | 182 | 3.0 | 8.0 | 0.00 | 0.00 | 0.00 | 25 | 1006.0 |
| 20260506003556 | 69 | 175 | 2.0 | 7.0 | 0.00 | 0.00 | 0.00 | 24 | 1006.0 |
| 20260506003056 | 70 | 213 | 0.0 | 5.0 | 0.00 | 0.00 | 0.00 | 24 | 1005.8 |
| 20260506002558 | 69 | 180 | 0.0 | 6.0 | 0.00 | 0.00 | 0.00 | 24 | 1005.8 |
| 20260506002055 | 69 | 182 | 2.0 | 6.0 | 0.00 | 0.00 | 0.00 | 24 | 1005.9 |
| 20260506001555 | 69 | 153 | 1.0 | 6.0 | 0.00 | 0.00 | 0.00 | 24 | 1005.9 |
| 20260506001056 | 69 | 148 | 2.0 | 7.0 | 0.00 | 0.00 | 0.00 | 23 | 1005.9 |
| 20260506000556 | 69 | 138 | 1.0 | 9.0 | 0.00 | 0.00 | 0.00 | 23 | 1005.9 |
| 20260506000058 | 69 | 101 | 3.0 | 9.0 | 0.00 | 0.00 | 0.00 | 23 | 1005.8 |
| 20260505235552 | 70 | 179 | 0.0 | 5.0 | 0.00 | 0.00 | 0.00 | 23 | 1005.8 |
| 20260505235052 | 69 | 159 | 1.0 | 7.0 | 0.00 | 0.00 | 0.00 | 24 | 1005.8 |
| 20260505234559 | 69 | 164 | 2.0 | 7.0 | 0.00 | 0.00 | 0.00 | 23 | 1005.8 |
| 20260505234052 | 69 | 95 | 2.0 | 7.0 | 0.00 | 0.00 | 0.00 | 24 | 1005.8 |
| 20260505233550 | 69 | 78 | 1.0 | 7.0 | 0.00 | 0.00 | 0.00 | 24 | 1005.8 |
| 20260505233103 | 69 | 138 | 0.0 | 8.0 | 0.00 | 0.00 | 0.00 | 24 | 1005.8 |
| 20260505232550 | 69 | 158 | 3.0 | 8.0 | 0.00 | 0.00 | 0.00 | 24 | 1005.9 |
| 20260505232051 | 69 | 88 | 3.0 | 7.0 | 0.00 | 0.00 | 0.00 | 24 | 1005.9 |
| 20260505231553 | 69 | 215 | 0.0 | 3.0 | 0.00 | 0.00 | 0.00 | 24 | 1005.9 |
| 20260505231047 | 68 | 227 | 0.0 | 9.0 | 0.00 | 0.00 | 0.00 | 24 | 1005.9 |
| 20260505230548 | 68 | 191 | 3.0 | 8.0 | 0.00 | 0.00 | 0.00 | 25 | 1006.0 |
| 20260505230046 | 67 | 31 | 2.0 | 10.0 | 0.00 | 0.00 | 0.00 | 24 | 1006.0 |
| 20260505225546 | 67 | 122 | 4.0 | 10.0 | 0.00 | 0.00 | 0.00 | 24 | 1006.1 |
| 20260505225045 | 68 | 106 | 2.0 | 9.0 | 0.00 | 0.00 | 0.00 | 24 | 1006.1 |
| 20260505224545 | 67 | 153 | 0.0 | 7.0 | 0.00 | 0.00 | 0.00 | 25 | 1006.3 |
| 20260505224045 | 68 | 155 | 2.0 | 7.0 | 0.00 | 0.00 | 0.00 | 24 | 1006.3 |
| 20260505223544 | 68 | 134 | 2.0 | 12.0 | 0.00 | 0.00 | 0.00 | 25 | 1006.3 |
| 20260505223051 | 68 | 104 | 5.0 | 12.0 | 0.00 | 0.00 | 0.00 | 25 | 1006.3 |
| 20260505222543 | 68 | 79 | 1.0 | 7.0 | 0.00 | 0.00 | 0.00 | 25 | 1006.3 |
| 20260505222043 | 68 | 59 | 4.0 | 10.0 | 0.00 | 0.00 | 0.00 | 25 | 1006.4 |
| 20260505221546 | 68 | 48 | 3.0 | 10.0 | 0.00 | 0.00 | 0.00 | 25 | 1006.4 |
| 20260505221143 | 68 | 124 | 4.0 | 9.0 | 0.00 | 0.00 | 0.00 | 24 | 1006.5 |
| 20260505220546 | 68 | 138 | 2.0 | 9.0 | 0.00 | 0.00 | 0.00 | 25 | 1006.5 |
| 20260505220042 | 68 | 111 | 3.0 | 9.0 | 0.00 | 0.00 | 0.00 | 25 | 1006.6 |
| 20260505215538 | 68 | 57 | 1.0 | 13.0 | 0.00 | 0.00 | 0.00 | 25 | 1006.6 |
| 20260505215037 | 67 | 71 | 6.0 | 13.0 | 0.00 | 0.00 | 0.00 | 26 | 1006.6 |
| 20260505214547 | 66 | 123 | 0.0 | 8.0 | 0.00 | 0.00 | 0.00 | 27 | 1006.6 |
| 20260505214036 | 67 | 91 | 3.0 | 8.0 | 0.00 | 0.00 | 0.00 | 26 | 1006.7 |
| 20260505213536 | 67 | 86 | 1.0 | 7.0 | 0.00 | 0.00 | 0.00 | 27 | 1006.7 |
| 20260505213036 | 67 | 167 | 0.0 | 9.0 | 0.00 | 0.00 | 0.00 | 27 | 1006.8 |
| 20260505212535 | 67 | 182 | 0.0 | 9.0 | 0.00 | 0.00 | 0.00 | 27 | 1006.9 |
| 20260505212034 | 67 | 80 | 1.0 | 8.0 | 0.00 | 0.00 | 0.00 | 27 | 1006.9 |
| 20260505211534 | 67 | 117 | 1.0 | 8.0 | 0.00 | 0.00 | 0.00 | 27 | 1006.9 |
| 20260505211036 | 67 | 83 | 3.0 | 8.0 | 0.00 | 0.00 | 0.00 | 27 | 1007.1 |
| 20260505210533 | 67 | 89 | 1.0 | 7.0 | 0.00 | 0.00 | 0.00 | 27 | 1007.1 |
| 20260505210033 | 67 | 67 | 2.0 | 12.0 | 0.00 | 0.00 | 0.00 | 28 | 1007.1 |
| 20260505205533 | 66 | 137 | 4.0 | 14.0 | 0.00 | 0.00 | 0.00 | 28 | 1007.1 |
| 20260505205032 | 67 | 146 | 4.0 | 14.0 | 0.00 | 0.00 | 0.00 | 28 | 1007.0 |
| 20260505204535 | 67 | 86 | 5.0 | 10.0 | 0.00 | 0.00 | 0.00 | 28 | 1007.0 |
| 20260505204030 | 67 | 123 | 4.0 | 9.0 | 0.00 | 0.00 | 0.00 | 28 | 1007.1 |
| 20260505203529 | 67 | 171 | 3.0 | 9.0 | 0.00 | 0.00 | 0.00 | 28 | 1007.1 |
| 20260505203032 | 67 | 142 | 2.0 | 8.0 | 0.00 | 0.00 | 0.00 | 28 | 1007.1 |
| 20260505202529 | 66 | 229 | 2.0 | 9.0 | 0.00 | 0.00 | 0.00 | 29 | 1007.1 |
| 20260505202030 | 67 | 157 | 3.0 | 9.0 | 0.00 | 0.00 | 0.00 | 28 | 1007.1 |
| 20260505201528 | 67 | 84 | 3.0 | 10.0 | 0.00 | 0.00 | 0.00 | 28 | 1007.1 |
| 20260505201028 | 66 | 100 | 3.0 | 10.0 | 0.00 | 0.00 | 0.00 | 29 | 1007.0 |
| 20260505200528 | 66 | 136 | 4.0 | 10.0 | 0.00 | 0.00 | 0.00 | 30 | 1007.1 |
| 20260505200038 | 66 | 49 | 3.0 | 9.0 | 0.00 | 0.00 | 0.00 | 30 | 1007.1 |
| 20260505195530 | 65 | 90 | 0.0 | 9.0 | 0.00 | 0.00 | 0.00 | 30 | 1007.1 |
| 20260505195026 | 65 | 66 | 2.0 | 11.0 | 0.00 | 0.00 | 0.00 | 29 | 1007.3 |
| 20260505194526 | 65 | 171 | 1.0 | 11.0 | 0.00 | 0.00 | 0.00 | 30 | 1007.3 |
| 20260505194026 | 66 | 98 | 4.0 | 11.0 | 0.00 | 0.00 | 0.00 | 30 | 1007.4 |
| 20260505193525 | 65 | 136 | 1.0 | 10.0 | 0.00 | 0.00 | 0.00 | 31 | 1007.3 |
| 20260505193023 | 64 | 123 | 3.0 | 11.0 | 0.00 | 0.00 | 0.00 | 30 | 1007.5 |
| 20260505192528 | 65 | 155 | 5.0 | 12.0 | 0.00 | 0.00 | 0.00 | 31 | 1007.4 |
| 20260505192024 | 65 | 129 | 4.0 | 11.0 | 0.00 | 0.00 | 0.00 | 30 | 1007.5 |
| 20260505191524 | 65 | 159 | 4.0 | 11.0 | 0.00 | 0.00 | 0.00 | 30 | 1007.4 |
| 20260505191023 | 66 | 125 | 3.0 | 14.0 | 0.00 | 0.00 | 0.00 | 31 | 1007.4 |
| 20260505190523 | 66 | 150 | 3.0 | 14.0 | 0.00 | 0.00 | 0.00 | 30 | 1007.5 |
| 20260505190029 | 66 | 34 | 6.0 | 14.0 | 0.00 | 0.00 | 0.00 | 30 | 1007.5 |
| 20260505185524 | 65 | 157 | 0.0 | 10.0 | 0.00 | 0.00 | 0.00 | 31 | 1007.3 |
| 20260505185022 | 66 | 138 | 2.0 | 10.0 | 0.00 | 0.00 | 0.00 | 30 | 1007.5 |
| 20260505184524 | 66 | 69 | 3.0 | 8.0 | 0.00 | 0.00 | 0.00 | 30 | 1007.5 |
| 20260505184022 | 66 | 166 | 1.0 | 6.0 | 0.00 | 0.00 | 0.00 | 31 | 1007.6 |
| 20260505183520 | 65 | 246 | 1.0 | 7.0 | 0.00 | 0.00 | 0.00 | 31 | 1007.5 |
| 20260505183020 | 65 | 132 | 3.0 | 8.0 | 0.00 | 0.00 | 0.00 | 31 | 1007.5 |
| 20260505182519 | 65 | 91 | 1.0 | 8.0 | 0.00 | 0.00 | 0.00 | 32 | 1007.5 |
| 20260505182019 | 65 | 75 | 2.0 | 6.0 | 0.00 | 0.00 | 0.00 | 32 | 1007.6 |
| 20260505181520 | 64 | 80 | 1.0 | 4.0 | 0.00 | 0.00 | 0.00 | 32 | 1007.5 |
| 20260505181018 | 64 | 63 | 1.0 | 9.0 | 0.00 | 0.00 | 0.00 | 32 | 1007.6 |
| 20260505180516 | 64 | 155 | 3.0 | 9.0 | 0.00 | 0.00 | 0.00 | 32 | 1007.6 |
| 20260505180017 | 64 | 140 | 1.0 | 7.0 | 0.00 | 0.00 | 0.00 | 32 | 1007.6 |
| 20260505175516 | 64 | 155 | 1.0 | 9.0 | 0.00 | 0.00 | 0.00 | 33 | 1007.6 |
| 20260505175020 | 63 | 132 | 2.0 | 5.0 | 0.00 | 0.00 | 0.00 | 34 | 1007.6 |
| 20260505174515 | 63 | 53 | 2.0 | 8.0 | 0.00 | 0.00 | 0.00 | 33 | 1007.6 |
| 20260505174018 | 63 | 98 | 2.0 | 11.0 | 0.00 | 0.00 | 0.00 | 32 | 1007.6 |
| 20260505173514 | 63 | 146 | 2.0 | 11.0 | 0.00 | 0.00 | 0.00 | 33 | 1007.6 |
| 20260505173014 | 62 | 157 | 1.0 | 7.0 | 0.00 | 0.00 | 0.00 | 34 | 1007.6 |
| 20260505172514 | 63 | 98 | 1.0 | 8.0 | 0.00 | 0.00 | 0.00 | 34 | 1007.7 |
| 20260505172016 | 63 | 133 | 2.0 | 7.0 | 0.00 | 0.00 | 0.00 | 35 | 1007.6 |
| 20260505171518 | 61 | 101 | 0.0 | 11.0 | 0.00 | 0.00 | 0.00 | 36 | 1007.6 |
| 20260505171013 | 61 | 129 | 5.0 | 11.0 | 0.00 | 0.00 | 0.00 | 36 | 1007.6 |
| 20260505170512 | 62 | 128 | 0.0 | 7.0 | 0.00 | 0.00 | 0.00 | 37 | 1007.6 |
| 20260505170016 | 61 | 119 | 1.0 | 8.0 | 0.00 | 0.00 | 0.00 | 38 | 1007.6 |
| 20260505165510 | 60 | 125 | 1.0 | 9.0 | 0.00 | 0.00 | 0.00 | 38 | 1007.6 |
| 20260505165013 | 61 | 90 | 2.0 | 5.0 | 0.00 | 0.00 | 0.00 | 38 | 1007.7 |
| 20260505164509 | 60 | 38 | 2.0 | 6.0 | 0.00 | 0.00 | 0.00 | 39 | 1007.7 |
| 20260505164008 | 60 | 102 | 2.0 | 6.0 | 0.00 | 0.00 | 0.00 | 40 | 1007.7 |
| 20260505163509 | 60 | 44 | 2.0 | 6.0 | 0.00 | 0.00 | 0.00 | 40 | 1007.7 |
| 20260505163009 | 59 | 113 | 2.0 | 6.0 | 0.00 | 0.00 | 0.00 | 41 | 1007.6 |
| 20260505162507 | 59 | 81 | 2.0 | 8.0 | 0.00 | 0.00 | 0.00 | 42 | 1007.6 |
| 20260505162007 | 59 | 11 | 4.0 | 8.0 | 0.00 | 0.00 | 0.00 | 43 | 1007.6 |
| 20260505161507 | 58 | 22 | 2.0 | 5.0 | 0.00 | 0.00 | 0.00 | 43 | 1007.6 |
| 20260505161006 | 58 | 34 | 1.0 | 5.0 | 0.00 | 0.00 | 0.00 | 42 | 1007.7 |
| 20260505160507 | 58 | 51 | 1.0 | 5.0 | 0.00 | 0.00 | 0.00 | 43 | 1007.7 |
| 20260505153004 | 56 | 15 | 2.0 | 10.0 | 0.00 | 0.00 | 0.00 | 47 | 1007.6 |
| 20260505152504 | 56 | 5 | 6.0 | 10.0 | 0.00 | 0.00 | 0.00 | 46 | 1007.6 |
| 20260505152008 | 56 | 22 | 3.0 | 11.0 | 0.00 | 0.00 | 0.00 | 47 | 1007.6 |
| 20260505151504 | 55 | 40 | 5.0 | 11.0 | 0.00 | 0.00 | 0.00 | 48 | 1007.6 |
| 20260505151003 | 55 | 24 | 2.0 | 9.0 | 0.00 | 0.00 | 0.00 | 48 | 1007.5 |
| 20260505150502 | 56 | 58 | 3.0 | 8.0 | 0.00 | 0.00 | 0.00 | 47 | 1007.3 |
| 20260505140556 | 54 | 25 | 6.0 | 11.0 | 0.00 | 0.00 | 0.00 | 50 | 1007.0 |
| 20260505130106 | 52 | 17 | 0.0 | 4.0 | 0.00 | 0.00 | 0.00 | 50 | 1006.4 |
| 20260505124552 | 52 | 17 | 0.0 | 0.0 | 0.00 | 0.00 | 0.00 | 51 | 1006.2 |
| 20260505124044 | 52 | 17 | 0.0 | 0.0 | 0.00 | 0.00 | 0.00 | 51 | 1006.1 |
| 20260505123545 | 52 | 17 | 0.0 | 1.0 | 0.00 | 0.00 | 0.00 | 50 | 1006.1 |
| 20260505123046 | 52 | 17 | 0.0 | 1.0 | 0.00 | 0.00 | 0.00 | 50 | 1006.1 |
| 20260505122543 | 52 | 17 | 0.0 | 1.0 | 0.00 | 0.00 | 0.00 | 50 | 1006.1 |
| 20260505122042 | 52 | 17 | 0.0 | 3.0 | 0.00 | 0.00 | 0.00 | 49 | 1006.1 |
| 20260505121544 | 52 | 18 | 0.0 | 3.0 | 0.00 | 0.00 | 0.00 | 49 | 1006.1 |
| 20260505121041 | 52 | 18 | 0.0 | 4.0 | 0.00 | 0.00 | 0.00 | 49 | 1006.0 |
| 20260505120542 | 52 | 18 | 1.0 | 4.0 | 0.00 | 0.00 | 0.00 | 49 | 1005.9 |
| 20260505120040 | 52 | 225 | 0.0 | 3.0 | 0.00 | 0.00 | 0.00 | 49 | 1006.0 |
| 20260505115539 | 52 | 225 | 0.0 | 3.0 | 0.00 | 0.00 | 0.00 | 49 | 1005.9 |
| 20260505115041 | 52 | 225 | 0.0 | 3.0 | 0.00 | 0.00 | 0.00 | 48 | 1005.9 |
| 20260505114538 | 52 | 225 | 0.0 | 3.0 | 0.00 | 0.00 | 0.00 | 48 | 1005.9 |
| 20260505114037 | 52 | 225 | 0.0 | 3.0 | 0.00 | 0.00 | 0.00 | 48 | 1005.9 |
| 20260505113538 | 53 | 223 | 0.0 | 3.0 | 0.00 | 0.00 | 0.00 | 47 | 1006.0 |
| 20260505113036 | 53 | 222 | 0.0 | 2.0 | 0.00 | 0.00 | 0.00 | 47 | 1005.9 |
| 20260505112538 | 53 | 222 | 0.0 | 1.0 | 0.00 | 0.00 | 0.00 | 47 | 1005.8 |
| 20260505112033 | 53 | 222 | 0.0 | 1.0 | 0.00 | 0.00 | 0.00 | 47 | 1005.7 |
| 20260505111538 | 53 | 222 | 0.0 | 2.0 | 0.00 | 0.00 | 0.00 | 47 | 1005.7 |
| 20260505111034 | 53 | 222 | 0.0 | 3.0 | 0.00 | 0.00 | 0.00 | 47 | 1005.7 |
| 20260505110533 | 53 | 222 | 0.0 | 3.0 | 0.00 | 0.00 | 0.00 | 47 | 1005.7 |
| 20260505110123 | 53 | 222 | 0.0 | 2.0 | 0.00 | 0.00 | 0.00 | 47 | 1005.7 |
| 20260505102026 | 55 | 224 | 0.0 | 2.0 | 0.00 | 0.00 | 0.00 | 43 | 1005.5 |
| 20260505101526 | 55 | 224 | 0.0 | 1.0 | 0.00 | 0.00 | 0.00 | 43 | 1005.5 |
| 20260505101025 | 55 | 224 | 0.0 | 1.0 | 0.00 | 0.00 | 0.00 | 42 | 1005.6 |
| 20260505100526 | 55 | 224 | 0.0 | 1.0 | 0.00 | 0.00 | 0.00 | 42 | 1005.6 |
| 20260505100028 | 55 | 224 | 0.0 | 2.0 | 0.00 | 0.00 | 0.00 | 42 | 1005.5 |
| 20260505095523 | 55 | 224 | 0.0 | 2.0 | 0.00 | 0.00 | 0.00 | 42 | 1005.4 |
| 20260505095121 | 55 | 224 | 0.0 | 2.0 | 0.00 | 0.00 | 0.00 | 41 | 1005.5 |
| 20260505094521 | 55 | 224 | 0.0 | 3.0 | 0.00 | 0.00 | 0.00 | 41 | 1005.3 |
| 20260505094021 | 56 | 224 | 0.0 | 3.0 | 0.00 | 0.00 | 0.00 | 41 | 1005.4 |
| 20260505093519 | 56 | 224 | 0.0 | 3.0 | 0.00 | 0.00 | 0.00 | 41 | 1005.4 |
| 20260505093019 | 56 | 225 | 0.0 | 2.0 | 0.00 | 0.00 | 0.00 | 40 | 1005.3 |
| 20260505092520 | 56 | 225 | 0.0 | 3.0 | 0.00 | 0.00 | 0.00 | 40 | 1005.3 |
| 20260505092018 | 56 | 225 | 0.0 | 4.0 | 0.00 | 0.00 | 0.00 | 41 | 1005.2 |
| 20260505091517 | 56 | 224 | 1.0 | 6.0 | 0.00 | 0.00 | 0.00 | 41 | 1005.3 |
| 20260505091019 | 57 | 236 | 1.0 | 7.0 | 0.00 | 0.00 | 0.00 | 40 | 1005.3 |
| 20260505090516 | 57 | 231 | 3.0 | 9.0 | 0.00 | 0.00 | 0.00 | 40 | 1005.4 |
| 20260505090014 | 57 | 220 | 2.0 | 9.0 | 0.00 | 0.00 | 0.00 | 40 | 1005.5 |
| 20260505085513 | 57 | 225 | 3.0 | 8.0 | 0.00 | 0.00 | 0.00 | 39 | 1005.5 |
| 20260505085013 | 57 | 223 | 3.0 | 8.0 | 0.00 | 0.00 | 0.00 | 39 | 1005.5 |
| 20260505084517 | 57 | 223 | 3.0 | 8.0 | 0.00 | 0.00 | 0.00 | 39 | 1005.4 |
| 20260505084011 | 58 | 217 | 3.0 | 8.0 | 0.00 | 0.00 | 0.00 | 39 | 1005.5 |
| 20260505083510 | 58 | 215 | 4.0 | 8.0 | 0.00 | 0.00 | 0.00 | 38 | 1005.5 |
| 20260505083014 | 58 | 211 | 2.0 | 5.0 | 0.00 | 0.00 | 0.00 | 38 | 1005.5 |
| 20260505082510 | 58 | 215 | 1.0 | 5.0 | 0.00 | 0.00 | 0.00 | 37 | 1005.5 |
| 20260505082015 | 58 | 211 | 1.0 | 5.0 | 0.00 | 0.00 | 0.00 | 37 | 1005.6 |
| 20260505081510 | 58 | 188 | 0.0 | 3.0 | 0.00 | 0.00 | 0.00 | 38 | 1005.7 |
| 20260505081009 | 58 | 187 | 0.0 | 4.0 | 0.00 | 0.00 | 0.00 | 37 | 1005.7 |
| 20260505080508 | 58 | 187 | 1.0 | 5.0 | 0.00 | 0.00 | 0.00 | 37 | 1005.6 |
| 20260505080006 | 59 | 190 | 1.0 | 4.0 | 0.00 | 0.00 | 0.00 | 36 | 1005.7 |
| 20260505075504 | 59 | 231 | 0.0 | 7.0 | 0.00 | 0.00 | 0.00 | 34 | 1005.7 |
| 20260505075007 | 60 | 232 | 1.0 | 9.0 | 0.00 | 0.00 | 0.00 | 34 | 1005.6 |
| 20260505074504 | 60 | 230 | 3.0 | 10.0 | 0.00 | 0.00 | 0.00 | 34 | 1005.5 |
| 20260505074003 | 60 | 253 | 3.0 | 10.0 | 0.00 | 0.00 | 0.00 | 34 | 1005.4 |
| 20260505073503 | 60 | 236 | 4.0 | 9.0 | 0.00 | 0.00 | 0.00 | 34 | 1005.4 |
| 20260505073003 | 60 | 233 | 4.0 | 8.0 | 0.00 | 0.00 | 0.00 | 35 | 1005.3 |
| 20260505072502 | 59 | 237 | 3.0 | 8.0 | 0.00 | 0.00 | 0.00 | 35 | 1005.4 |
| 20260505072100 | 59 | 234 | 4.0 | 9.0 | 0.00 | 0.00 | 0.00 | 35 | 1005.4 |
| 20260505071619 | 59 | 242 | 3.0 | 8.0 | 0.00 | 0.00 | 0.00 | 36 | 1005.3 |
| 20260505071059 | 59 | 239 | 3.0 | 10.0 | 0.00 | 0.00 | 0.00 | 36 | 1005.5 |
| 20260505070601 | 59 | 234 | 3.0 | 8.0 | 0.00 | 0.00 | 0.00 | 36 | 1005.4 |
| 20260505070111 | 59 | 276 | 3.0 | 10.0 | 0.00 | 0.00 | 0.00 | 36 | 1005.4 |
| 20260505065557 | 59 | 243 | 2.0 | 10.0 | 0.00 | 0.00 | 0.00 | 37 | 1005.3 |
| 20260505065057 | 59 | 240 | 4.0 | 11.0 | 0.00 | 0.00 | 0.00 | 37 | 1005.4 |
| 20260505064559 | 59 | 247 | 3.0 | 10.0 | 0.00 | 0.00 | 0.00 | 37 | 1005.4 |
| 20260505064101 | 59 | 235 | 4.0 | 10.0 | 0.00 | 0.00 | 0.00 | 37 | 1005.4 |
| 20260505063557 | 59 | 221 | 5.0 | 10.0 | 0.00 | 0.00 | 0.00 | 37 | 1005.4 |
| 20260505063056 | 59 | 229 | 5.0 | 10.0 | 0.00 | 0.00 | 0.00 | 36 | 1005.5 |
| 20260505062557 | 59 | 240 | 4.0 | 11.0 | 0.00 | 0.00 | 0.00 | 36 | 1005.3 |
| 20260505062059 | 59 | 239 | 5.0 | 11.0 | 0.00 | 0.00 | 0.00 | 36 | 1005.3 |
| 20260505061559 | 60 | 248 | 5.0 | 11.0 | 0.00 | 0.00 | 0.00 | 36 | 1005.3 |
| 20260505061058 | 60 | 244 | 4.0 | 11.0 | 0.00 | 0.00 | 0.00 | 36 | 1005.2 |
| 20260505060555 | 60 | 242 | 4.0 | 14.0 | 0.00 | 0.00 | 0.00 | 35 | 1005.3 |
| 20260505060055 | 60 | 224 | 5.0 | 14.0 | 0.00 | 0.00 | 0.00 | 35 | 1005.4 |
| 20260505055554 | 60 | 206 | 6.0 | 14.0 | 0.00 | 0.00 | 0.00 | 35 | 1005.4 |
| 20260505055054 | 60 | 225 | 4.0 | 11.0 | 0.00 | 0.00 | 0.00 | 34 | 1005.4 |
| 20260505054557 | 60 | 233 | 4.0 | 14.0 | 0.00 | 0.00 | 0.00 | 34 | 1005.3 |
| 20260505054057 | 60 | 214 | 6.0 | 14.0 | 0.00 | 0.00 | 0.00 | 34 | 1005.4 |
| 20260505053553 | 61 | 230 | 6.0 | 12.0 | 0.00 | 0.00 | 0.00 | 34 | 1005.3 |
| 20260505053102 | 61 | 241 | 5.0 | 12.0 | 0.00 | 0.00 | 0.00 | 34 | 1005.2 |
| 20260505052654 | 61 | 214 | 5.0 | 10.0 | 0.00 | 0.00 | 0.00 | 33 | 1005.3 |